13/07/2011,00:00:08,   0.0,  0.0,  127,+11.8,  85.5,    0.2,  +15.9,  +17.3,  +13.1,+1100.00,2B
13/07/2011,00:00:25,   0.0,  0.0,  127,+11.8,  85.5,    0.1,  +15.8,  +17.3,  +13.0,+1100.00,27
13/07/2011,00:01:10,   0.0,  0.0,  127,+11.8,  85.8,    0.2,  +15.9,  +17.2,  +13.1,+1100.00,27
13/07/2011,00:01:28,   0.0,  0.0,  127,+11.8,  85.8,    0.0,  +15.9,  +17.3,  +13.1,+1100.00,2F
13/07/2011,00:01:45,   0.0,  0.0,  127,+11.8,  85.9,    0.0,  +15.9,  +17.3,  +13.1,+1100.00,2F
13/07/2011,00:02:11,   0.0,  0.0,  128,+11.7,  85.8,    0.2,  +16.0,  +17.2,  +13.2,+1100.00,22
13/07/2011,00:02:29,   0.0,  0.0,  127,+11.7,  85.7,    0.4,  +15.9,  +17.3,  +13.2,+1100.00,34
13/07/2011,00:02:47,   0.0,  0.0,  110,+11.8,  85.6,    0.2,  +15.9,  +17.3,  +13.2,+1100.00,2A
13/07/2011,00:03:05,   0.0,  0.0,   96,+11.7,  85.6,    0.1,  +16.0,  +17.3,  +13.2,+1100.00,18
13/07/2011,00:03:31,   0.0,  0.0,   94,+11.7,  85.8,    0.1,  +15.9,  +17.3,  +13.2,+1100.00,1F
13/07/2011,00:03:49,   0.0,  0.0,   73,+11.7,  85.8,    0.0,  +15.9,  +17.3,  +13.2,+1100.00,24
13/07/2011,00:04:07,   0.0,  0.0,   75,+11.7,  85.8,    0.4,  +15.9,  +17.3,  +13.2,+1100.00,25
13/07/2011,00:04:25,   0.0,  0.0,   76,+11.7,  85.8,    0.3,  +15.9,  +17.3,  +13.2,+1100.00,25
13/07/2011,00:04:51,   0.0,  0.0,   79,+11.7,  86.0,    0.0,  +15.9,  +17.3,  +13.2,+1100.00,1D
13/07/2011,00:05:09,   0.0,  0.0,   81,+11.7,  86.0,    0.1,  +15.9,  +17.3,  +13.2,+1100.00,1B
13/07/2011,00:05:27,   0.0,  0.0,   81,+11.7,  86.0,    0.2,  +15.9,  +17.3,  +13.2,+1100.00,1C
13/07/2011,00:05:45,   0.0,  0.0,   81,+11.7,  86.1,    0.2,  +15.9,  +17.3,  +13.2,+1100.00,1D
13/07/2011,00:06:11,   0.0,  0.0,   84,+11.7,  86.1,    0.3,  +16.0,  +17.2,  +13.2,+1100.00,12
13/07/2011,00:06:29,   0.0,  0.0,   85,+11.7,  86.0,    0.3,  +16.0,  +17.2,  +13.2,+1100.00,1B
13/07/2011,00:06:47,   0.0,  0.0,   85,+11.7,  85.9,    0.1,  +15.9,  +17.3,  +13.2,+1100.00,2A
13/07/2011,00:07:05,   0.0,  0.0,   82,+11.7,  85.9,    0.3,  +15.9,  +17.3,  +13.2,+1100.00,24
13/07/2011,00:07:31,   0.0,  0.0,   82,+11.7,  86.0,    0.1,  +15.9,  +17.3,  +13.2,+1100.00,19
13/07/2011,00:07:49,   0.0,  0.0,   65,+11.7,  86.0,    0.0,  +15.9,  +17.2,  +13.2,+1100.00,21
13/07/2011,00:08:07,   0.0,  0.0,   69,+11.7,  86.1,    0.1,  +15.9,  +17.2,  +13.2,+1100.00,22
13/07/2011,00:08:24,   0.0,  0.0,   70,+11.6,  86.1,    0.1,  +16.0,  +17.2,  +13.3,+1100.00,11
13/07/2011,00:08:50,   0.0,  0.0,   71,+11.7,  86.2,    0.1,  +15.9,  +17.2,  +13.2,+1100.00,1A
13/07/2011,00:09:08,   0.0,  0.0,   71,+11.7,  86.2,    0.3,  +15.8,  +17.3,  +13.2,+1100.00,20
13/07/2011,00:09:26,   0.0,  0.0,   72,+11.7,  86.3,    0.2,  +16.0,  +17.2,  +13.3,+1100.00,1A
13/07/2011,00:09:44,   0.0,  0.0,   60,+11.7,  86.4,    0.3,  +15.9,  +17.3,  +13.3,+1100.00,22
13/07/2011,00:10:10,   0.0,  0.0,   62,+11.6,  86.3,    0.1,  +15.9,  +17.2,  +13.3,+1100.00,10
13/07/2011,00:10:28,   0.0,  0.0,   62,+11.6,  86.3,    0.2,  +15.9,  +17.3,  +13.3,+1100.00,1B
13/07/2011,00:10:46,   0.0,  0.0,   61,+11.7,  86.3,    0.0,  +15.9,  +17.3,  +13.3,+1100.00,19
13/07/2011,00:11:04,   0.0,  0.0,   65,+11.7,  86.4,    0.1,  +16.0,  +17.2,  +13.4,+1100.00,12
13/07/2011,00:11:30,   0.0,  0.0,   50,+11.7,  86.5,    0.2,  +15.9,  +17.3,  +13.3,+1100.00,15
13/07/2011,00:11:48,   0.0,  0.0,   48,+11.6,  86.4,    0.2,  +16.0,  +17.2,  +13.4,+1100.00,1B
13/07/2011,00:12:06,   0.0,  0.0,   54,+11.6,  86.5,    0.4,  +15.8,  +17.4,  +13.3,+1100.00,1E
13/07/2011,00:12:31,   0.0,  0.0,   50,+11.6,  86.6,    0.1,  +15.9,  +17.3,  +13.3,+1100.00,16
13/07/2011,00:12:49,   0.0,  0.0,   51,+11.7,  86.5,    0.1,  +15.9,  +17.3,  +13.4,+1100.00,21
13/07/2011,00:13:07,   0.0,  0.0,   49,+11.7,  86.6,    0.4,  +15.9,  +17.3,  +13.4,+1100.00,27
13/07/2011,00:13:25,   0.0,  0.0,   50,+11.6,  86.6,    0.3,  +15.9,  +17.2,  +13.4,+1100.00,1C
13/07/2011,00:13:51,   0.0,  0.0,   49,+11.6,  86.6,    0.0,  +15.9,  +17.2,  +13.4,+1100.00,20
13/07/2011,00:14:09,   0.0,  0.0,   49,+11.6,  86.7,    0.2,  +16.0,  +17.3,  +13.4,+1100.00,20
13/07/2011,00:14:27,   0.0,  0.0,   49,+11.6,  86.7,    0.1,  +15.9,  +17.3,  +13.4,+1100.00,27
13/07/2011,00:14:45,   0.0,  0.0,   45,+11.6,  86.7,    0.1,  +15.9,  +17.2,  +13.4,+1100.00,22
13/07/2011,00:15:10,   0.0,  0.0,   45,+11.6,  86.7,    0.1,  +16.0,  +17.2,  +13.4,+1100.00,13
13/07/2011,00:15:28,   0.0,  0.0,   45,+11.7,  86.8,    0.1,  +15.9,  +17.3,  +13.4,+1100.00,27
13/07/2011,00:15:46,   0.0,  0.0,   45,+11.6,  86.8,    0.3,  +15.9,  +17.3,  +13.4,+1100.00,28
13/07/2011,00:16:04,   0.0,  0.0,   45,+11.6,  86.8,    0.0,  +15.9,  +17.3,  +13.4,+1100.00,20
13/07/2011,00:16:30,   0.0,  0.0,   46,+11.7,  86.8,    0.2,  +15.9,  +17.3,  +13.4,+1100.00,23
13/07/2011,00:16:48,   0.0,  0.0,   45,+11.7,  86.7,    0.0,  +15.9,  +17.3,  +13.5,+1100.00,29
13/07/2011,00:17:06,   0.0,  0.0,   45,+11.7,  86.6,    0.1,  +15.9,  +17.3,  +13.5,+1100.00,24
13/07/2011,00:17:31,   0.0,  0.0,   46,+11.7,  86.5,    0.2,  +15.8,  +17.3,  +13.5,+1100.00,22
13/07/2011,00:17:49,   0.0,  0.0,   45,+11.7,  86.4,    0.4,  +15.9,  +17.3,  +13.5,+1100.00,2C
13/07/2011,00:18:07,   0.0,  0.0,   45,+11.7,  86.5,    0.3,  +16.1,  +17.2,  +13.6,+1100.00,20
13/07/2011,00:18:25,   0.0,  0.0,   45,+11.7,  86.4,    0.1,  +15.9,  +17.3,  +13.6,+1100.00,25
13/07/2011,00:18:51,   0.0,  0.0,   46,+11.7,  86.5,    0.1,  +15.9,  +17.2,  +13.6,+1100.00,25
13/07/2011,00:19:09,   0.0,  0.0,   45,+11.7,  86.4,    0.3,  +15.9,  +17.3,  +13.5,+1100.00,29
13/07/2011,00:19:27,   0.0,  0.0,   45,+11.7,  86.4,    0.1,  +15.9,  +17.3,  +13.6,+1100.00,28
13/07/2011,00:19:45,   0.0,  0.0,   45,+11.7,  86.3,    0.2,  +16.0,  +17.2,  +13.6,+1100.00,1F
13/07/2011,00:20:10,   0.0,  0.0,   45,+11.7,  86.4,    0.1,  +15.9,  +17.3,  +13.6,+1100.00,18
13/07/2011,00:20:28,   0.0,  0.0,   45,+11.7,  86.4,    0.4,  +15.9,  +17.3,  +13.6,+1100.00,24
13/07/2011,00:20:46,   0.0,  0.0,   45,+11.7,  86.4,    0.3,  +15.8,  +17.3,  +13.6,+1100.00,22
13/07/2011,00:21:04,   0.0,  0.0,   44,+11.7,  86.5,    0.2,  +16.0,  +17.2,  +13.7,+1100.00,15
13/07/2011,00:21:30,   0.0,  0.0,   45,+11.6,  86.6,    0.2,  +15.9,  +17.3,  +13.6,+1100.00,1D
13/07/2011,00:21:48,   0.0,  0.0,   44,+11.7,  86.6,    0.1,  +16.0,  +17.2,  +13.7,+1100.00,1D
13/07/2011,00:22:06,   0.0,  0.0,   44,+11.7,  86.6,    0.1,  +15.8,  +17.3,  +13.7,+1100.00,20
13/07/2011,00:22:31,   0.0,  0.0,   44,+11.7,  86.5,    0.1,  +16.0,  +17.2,  +13.7,+1100.00,15
13/07/2011,00:22:49,   0.0,  0.0,   39,+11.7,  86.5,    0.4,  +16.0,  +17.2,  +13.8,+1100.00,26
13/07/2011,00:23:07,   0.0,  0.0,   39,+11.6,  86.4,    0.3,  +16.0,  +17.2,  +13.8,+1100.00,1E
13/07/2011,00:23:25,   0.0,  0.0,   38,+11.6,  86.4,    0.1,  +16.0,  +17.2,  +13.7,+1100.00,1A
13/07/2011,00:23:51,   0.0,  0.0,   39,+11.6,  86.4,    0.2,  +16.0,  +17.2,  +13.8,+1100.00,1C
13/07/2011,00:24:09,   0.0,  0.0,   38,+11.6,  86.4,    0.3,  +15.9,  +17.3,  +13.8,+1100.00,29
13/07/2011,00:24:27,   0.0,  0.0,   38,+11.6,  86.4,    0.4,  +15.9,  +17.3,  +13.8,+1100.00,2A
13/07/2011,00:24:44,   0.0,  0.0,   37,+11.6,  86.4,    0.2,  +15.9,  +17.3,  +13.8,+1100.00,26
13/07/2011,00:25:10,   0.0,  0.0,   35,+11.6,  86.4,    0.1,  +15.9,  +17.3,  +13.8,+1100.00,1D
13/07/2011,00:25:28,   0.0,  0.0,   35,+11.6,  86.4,    0.1,  +15.9,  +17.3,  +13.8,+1100.00,26
13/07/2011,00:25:46,   0.0,  0.0,   20,+11.6,  86.4,    0.3,  +16.0,  +17.2,  +13.8,+1100.00,19
13/07/2011,00:26:04,   0.0,  0.0,   20,+11.6,  86.3,    0.1,  +15.9,  +17.3,  +13.8,+1100.00,1A
13/07/2011,00:26:30,   0.0,  0.0,   21,+11.6,  86.3,    0.2,  +15.9,  +17.3,  +13.8,+1100.00,1B
13/07/2011,00:26:48,   0.0,  0.0,   20,+11.6,  86.3,    0.0,  +15.9,  +17.3,  +13.8,+1100.00,21
13/07/2011,00:27:06,   0.0,  0.0,   20,+11.6,  86.3,    0.0,  +16.0,  +17.2,  +13.9,+1100.00,14
13/07/2011,00:27:31,   0.0,  0.0,   20,+11.6,  86.2,    0.1,  +16.0,  +17.2,  +13.8,+1100.00,11
13/07/2011,00:27:49,   0.0,  0.0,   18,+11.6,  86.3,    0.4,  +16.0,  +17.3,  +13.9,+1100.00,27
13/07/2011,00:28:07,   0.0,  0.0,   18,+11.6,  86.3,    0.3,  +16.0,  +17.2,  +13.9,+1100.00,20
13/07/2011,00:28:25,   0.0,  0.0,   18,+11.6,  86.2,    0.3,  +15.8,  +17.3,  +13.8,+1100.00,26
13/07/2011,00:28:51,   0.0,  0.0,   18,+11.6,  86.2,    0.2,  +16.0,  +17.2,  +13.9,+1100.00,1D
13/07/2011,00:29:09,   0.0,  0.0,   17,+11.6,  86.2,    0.2,  +15.9,  +17.2,  +13.9,+1100.00,28
13/07/2011,00:29:27,   0.0,  0.0,   17,+11.6,  86.2,    0.0,  +15.9,  +17.3,  +13.9,+1100.00,27
13/07/2011,00:29:45,   0.0,  0.0,   17,+11.6,  86.2,    0.1,  +16.0,  +17.3,  +13.9,+1100.00,20
13/07/2011,00:30:10,   0.0,  0.0,   17,+11.6,  86.2,    0.2,  +15.9,  +17.3,  +13.9,+1100.00,19
13/07/2011,00:30:28,   0.0,  0.0,   16,+11.6,  86.3,    0.1,  +15.9,  +17.3,  +13.9,+1100.00,21
13/07/2011,00:30:46,   0.0,  0.0,   13,+11.6,  86.3,    0.3,  +15.9,  +17.3,  +13.9,+1100.00,20
13/07/2011,00:31:04,   0.0,  0.0,   16,+11.6,  86.3,    0.4,  +15.9,  +17.3,  +13.9,+1100.00,1F
13/07/2011,00:31:30,   0.0,  0.0,   12,+11.6,  86.3,    0.2,  +16.0,  +17.3,  +13.9,+1100.00,10
13/07/2011,00:31:48,   0.0,  0.0,  359,+11.6,  86.3,    0.1,  +16.0,  +17.2,  +13.9,+1100.00,35
13/07/2011,00:32:06,   0.0,  0.0,  348,+11.6,  86.3,    0.1,  +16.0,  +17.3,  +13.9,+1100.00,2F
13/07/2011,00:32:31,   0.0,  0.0,  347,+11.6,  86.4,    0.1,  +15.9,  +17.3,  +13.9,+1100.00,35
13/07/2011,00:32:49,   0.0,  0.0,  351,+11.6,  86.4,    0.3,  +16.0,  +17.2,  +13.9,+1100.00,32
13/07/2011,00:33:07,   0.0,  0.0,  350,+11.6,  86.4,    0.4,  +15.9,  +17.3,  +13.9,+1100.00,36
13/07/2011,00:33:25,   0.0,  0.0,  350,+11.6,  86.4,    0.1,  +16.0,  +17.3,  +13.9,+1100.00,2B
13/07/2011,00:33:51,   0.0,  0.0,  351,+11.6,  86.4,    0.2,  +15.9,  +17.3,  +13.9,+1100.00,34
13/07/2011,00:34:09,   0.0,  0.0,  350,+11.6,  86.4,    0.2,  +16.0,  +17.2,  +14.0,+1100.00,26
13/07/2011,00:34:27,   0.0,  0.0,  350,+11.6,  86.3,    0.3,  +15.9,  +17.3,  +13.9,+1100.00,37
13/07/2011,00:34:45,   0.0,  0.0,  349,+11.6,  86.3,    0.1,  +15.9,  +17.3,  +13.9,+1100.00,3D
13/07/2011,00:35:10,   0.0,  0.0,  346,+11.6,  86.3,    0.2,  +15.9,  +17.3,  +13.9,+1100.00,34
13/07/2011,00:35:28,   0.0,  0.0,  346,+11.6,  86.3,    0.1,  +15.9,  +17.3,  +13.9,+1100.00,3C
13/07/2011,00:35:46,   0.0,  0.0,  348,+11.6,  86.3,    0.4,  +16.0,  +17.2,  +14.0,+1100.00,30
13/07/2011,00:36:04,   0.0,  0.0,  349,+11.6,  86.3,    0.3,  +15.9,  +17.3,  +13.9,+1100.00,3C
13/07/2011,00:36:30,   0.0,  0.0,  354,+11.6,  86.3,    0.2,  +15.9,  +17.3,  +13.9,+1100.00,36
13/07/2011,00:36:48,   0.0,  0.0,  354,+11.6,  86.3,    0.0,  +16.0,  +17.3,  +13.9,+1100.00,35
13/07/2011,00:37:06,   0.0,  0.0,  354,+11.6,  86.3,    0.1,  +15.9,  +17.3,  +13.9,+1100.00,39
13/07/2011,00:37:31,   0.0,  0.0,  354,+11.6,  86.2,    0.2,  +15.9,  +17.3,  +13.9,+1100.00,37
13/07/2011,00:37:49,   0.0,  0.0,  353,+11.6,  86.2,    0.2,  +15.8,  +17.4,  +13.9,+1100.00,3F
13/07/2011,00:38:07,   0.0,  0.0,  347,+11.6,  86.1,    0.3,  +16.0,  +17.3,  +14.0,+1100.00,2D
13/07/2011,00:38:25,   0.0,  0.0,  347,+11.6,  86.1,    0.1,  +15.9,  +17.3,  +14.0,+1100.00,33
13/07/2011,00:38:51,   0.0,  0.0,  348,+11.6,  86.1,    0.3,  +16.0,  +17.3,  +13.9,+1100.00,35
13/07/2011,00:39:09,   0.0,  0.0,  350,+11.6,  86.2,    0.3,  +15.9,  +17.4,  +13.9,+1100.00,3C
13/07/2011,00:39:27,   0.0,  0.0,  349,+11.6,  86.2,    0.3,  +16.0,  +17.2,  +14.0,+1100.00,32
13/07/2011,00:39:45,   0.0,  0.0,  349,+11.6,  86.2,    0.2,  +16.0,  +17.3,  +14.0,+1100.00,32
13/07/2011,00:40:10,   0.0,  0.0,  349,+11.6,  86.2,    0.1,  +16.0,  +17.3,  +14.0,+1100.00,21
13/07/2011,00:40:28,   0.0,  0.0,  349,+11.6,  86.1,    0.1,  +16.0,  +17.2,  +14.0,+1100.00,28
13/07/2011,00:40:46,   0.0,  0.0,  349,+11.6,  86.1,    0.3,  +15.9,  +17.3,  +14.0,+1100.00,33
13/07/2011,00:41:04,   0.0,  0.0,  349,+11.6,  86.1,    0.1,  +15.9,  +17.3,  +13.9,+1100.00,34
13/07/2011,00:41:30,   0.0,  0.0,  347,+11.6,  86.2,    0.1,  +16.0,  +17.3,  +14.0,+1100.00,22
13/07/2011,00:41:48,   0.0,  0.0,  346,+11.6,  86.1,    0.2,  +16.0,  +17.3,  +14.0,+1100.00,2A
13/07/2011,00:42:06,   0.0,  0.0,  346,+11.6,  86.1,    0.1,  +16.0,  +17.3,  +14.0,+1100.00,24
13/07/2011,00:42:31,   0.0,  0.0,  347,+11.6,  86.1,    0.1,  +16.0,  +17.2,  +14.0,+1100.00,22
13/07/2011,00:42:49,   0.0,  0.0,  346,+11.6,  86.1,    0.3,  +15.9,  +17.3,  +14.0,+1100.00,35
13/07/2011,00:43:07,   0.0,  0.0,  346,+11.6,  86.2,    0.3,  +15.9,  +17.3,  +14.0,+1100.00,31
13/07/2011,00:43:25,   0.0,  0.0,  347,+11.6,  86.2,    0.4,  +16.0,  +17.2,  +14.0,+1100.00,2A
13/07/2011,00:43:51,   0.0,  0.0,  350,+11.6,  86.2,    0.3,  +15.9,  +17.3,  +13.9,+1100.00,33
13/07/2011,00:44:09,   0.0,  0.0,  349,+11.6,  86.1,    0.2,  +16.0,  +17.2,  +14.0,+1100.00,2C
13/07/2011,00:44:27,   0.0,  0.0,  348,+11.6,  86.2,    0.2,  +16.0,  +17.2,  +14.0,+1100.00,2C
13/07/2011,00:44:44,   0.0,  0.0,  348,+11.5,  86.4,    0.0,  +16.0,  +17.2,  +14.0,+1100.00,2A
13/07/2011,00:45:10,   0.0,  0.0,  348,+11.6,  86.4,    0.2,  +16.0,  +17.3,  +14.0,+1100.00,28
13/07/2011,00:45:28,   0.0,  0.0,  348,+11.6,  86.4,    0.2,  +16.0,  +17.2,  +14.0,+1100.00,30
13/07/2011,00:45:46,   0.0,  0.0,  348,+11.5,  86.3,    0.2,  +16.0,  +17.3,  +14.0,+1100.00,2F
13/07/2011,00:46:04,   0.0,  0.0,  348,+11.6,  86.3,    0.3,  +16.0,  +17.2,  +14.1,+1100.00,2C
13/07/2011,00:46:30,   0.0,  0.0,  348,+11.6,  86.3,    0.2,  +16.0,  +17.3,  +14.0,+1100.00,2A
13/07/2011,00:46:48,   0.0,  0.0,  348,+11.6,  86.3,    0.2,  +16.0,  +17.3,  +14.0,+1100.00,33
13/07/2011,00:47:06,   0.0,  0.0,  347,+11.6,  86.2,    0.3,  +16.0,  +17.2,  +14.0,+1100.00,2C
13/07/2011,00:47:24,   0.0,  0.0,  348,+11.5,  86.3,    0.4,  +16.1,  +17.2,  +14.1,+1100.00,30
13/07/2011,00:47:50,   0.0,  0.0,  347,+11.5,  86.3,    0.2,  +16.1,  +17.2,  +14.0,+1100.00,2B
13/07/2011,00:48:08,   0.0,  0.0,  346,+11.5,  86.3,    0.2,  +16.0,  +17.2,  +14.0,+1100.00,2D
13/07/2011,00:48:26,   0.0,  0.0,  346,+11.5,  86.4,    0.2,  +15.9,  +17.3,  +14.0,+1100.00,37
13/07/2011,00:48:51,   0.0,  0.0,  347,+11.5,  86.5,    0.2,  +16.0,  +17.3,  +14.0,+1100.00,2F
13/07/2011,00:49:09,   0.0,  0.0,  346,+11.6,  86.6,    0.4,  +16.0,  +17.3,  +14.0,+1100.00,36
13/07/2011,00:49:27,   0.0,  0.0,  346,+11.5,  86.7,    0.3,  +15.9,  +17.3,  +14.0,+1100.00,3D
13/07/2011,00:49:45,   0.0,  0.0,  346,+11.5,  86.7,    0.1,  +16.0,  +17.3,  +14.1,+1100.00,34
13/07/2011,00:50:11,   0.0,  0.0,  346,+11.5,  86.7,    0.2,  +15.9,  +17.3,  +14.1,+1100.00,2E
13/07/2011,00:50:29,   0.0,  0.0,  346,+11.5,  86.7,    0.1,  +16.0,  +17.3,  +14.0,+1100.00,2D
13/07/2011,00:50:47,   0.0,  0.0,  346,+11.5,  86.8,    0.3,  +16.0,  +17.2,  +14.0,+1100.00,2F
13/07/2011,00:51:05,   0.0,  0.0,  346,+11.5,  86.9,    0.1,  +16.0,  +17.3,  +14.0,+1100.00,2A
13/07/2011,00:51:30,   0.0,  0.0,  347,+11.5,  86.9,    0.2,  +16.0,  +17.2,  +14.1,+1100.00,2A
13/07/2011,00:51:48,   0.0,  0.0,  350,+11.5,  86.9,    0.4,  +15.9,  +17.4,  +14.0,+1100.00,38
13/07/2011,00:52:06,   0.0,  0.0,  350,+11.5,  87.0,    0.4,  +15.9,  +17.3,  +14.0,+1100.00,2A
13/07/2011,00:52:24,   0.0,  0.0,  350,+11.5,  87.0,    0.1,  +16.0,  +17.3,  +14.0,+1100.00,1F
13/07/2011,00:52:50,   0.0,  0.0,  351,+11.5,  87.1,    0.1,  +16.0,  +17.2,  +14.0,+1100.00,1F
13/07/2011,00:53:08,   0.0,  0.0,  349,+11.6,  87.1,    0.0,  +15.9,  +17.3,  +14.0,+1100.00,33
13/07/2011,00:53:26,   0.0,  0.0,  349,+11.5,  87.1,    0.2,  +16.0,  +17.3,  +14.0,+1100.00,2C
13/07/2011,00:53:51,   0.0,  0.0,  350,+11.5,  87.0,    0.2,  +16.0,  +17.2,  +14.0,+1100.00,20
13/07/2011,00:54:09,   0.0,  0.0,  349,+11.6,  86.9,    0.1,  +15.9,  +17.4,  +14.0,+1100.00,3E
13/07/2011,00:54:27,   0.0,  0.0,  349,+11.5,  86.9,    0.4,  +16.1,  +17.2,  +14.1,+1100.00,38
13/07/2011,00:54:45,   0.0,  0.0,  349,+11.5,  86.9,    0.3,  +16.0,  +17.3,  +14.0,+1100.00,36
13/07/2011,00:55:11,   0.0,  0.0,  349,+11.5,  86.9,    0.1,  +15.9,  +17.3,  +14.0,+1100.00,36
13/07/2011,00:55:29,   0.0,  0.0,  349,+11.6,  86.9,    0.1,  +15.9,  +17.3,  +14.0,+1100.00,40
13/07/2011,00:55:47,   0.0,  0.0,  350,+11.6,  86.9,    0.5,  +16.0,  +17.2,  +14.1,+1100.00,34
13/07/2011,00:56:05,   0.0,  0.0,  349,+11.6,  86.8,    0.0,  +15.9,  +17.3,  +14.0,+1100.00,39
13/07/2011,00:56:30,   0.0,  0.0,  350,+11.6,  86.8,    0.1,  +15.9,  +17.3,  +14.0,+1100.00,30
13/07/2011,00:56:48,   0.0,  0.0,  349,+11.6,  86.8,    0.1,  +16.0,  +17.2,  +14.1,+1100.00,39
13/07/2011,00:57:06,   0.0,  0.0,  349,+11.6,  86.7,    0.3,  +15.9,  +17.3,  +14.0,+1100.00,3D
13/07/2011,00:57:24,   0.0,  0.0,  349,+11.6,  86.7,    0.4,  +16.0,  +17.2,  +14.1,+1100.00,36
13/07/2011,00:57:50,   0.0,  0.0,  346,+11.6,  86.7,    0.1,  +16.0,  +17.2,  +14.0,+1100.00,2E
13/07/2011,00:58:08,   0.0,  0.0,  345,+11.6,  86.7,    0.1,  +16.1,  +17.2,  +14.1,+1100.00,33
13/07/2011,00:58:26,   0.0,  0.0,  345,+11.6,  86.7,    0.1,  +16.0,  +17.3,  +14.1,+1100.00,33
13/07/2011,00:58:51,   0.0,  0.0,  347,+11.6,  86.7,    0.1,  +16.0,  +17.3,  +14.1,+1100.00,33
13/07/2011,00:59:09,   0.0,  0.0,  346,+11.6,  86.8,    0.4,  +15.9,  +17.3,  +14.1,+1100.00,42
13/07/2011,00:59:27,   0.0,  0.0,  346,+11.6,  86.9,    0.3,  +16.0,  +17.3,  +14.1,+1100.00,3A
13/07/2011,00:59:45,   0.0,  0.0,  346,+11.6,  87.1,    0.1,  +16.0,  +17.3,  +14.1,+1100.00,31
13/07/2011,01:00:11,   0.0,  0.0,  346,+11.6,  87.1,    0.1,  +15.9,  +17.3,  +14.1,+1100.00,25
13/07/2011,01:00:29,   0.0,  0.0,  346,+11.6,  87.0,    0.1,  +15.9,  +17.3,  +14.1,+1100.00,2D
13/07/2011,01:00:47,   0.0,  0.0,  346,+11.6,  87.0,    0.1,  +16.0,  +17.3,  +14.1,+1100.00,25
13/07/2011,01:01:05,   0.0,  0.0,  346,+11.6,  87.0,    0.1,  +16.0,  +17.2,  +14.1,+1100.00,1F
13/07/2011,01:01:30,   0.0,  0.0,  347,+11.6,  87.0,    0.3,  +16.0,  +17.2,  +14.1,+1100.00,20
13/07/2011,01:01:48,   0.0,  0.0,  346,+11.6,  87.0,    0.0,  +15.9,  +17.3,  +14.1,+1100.00,2E
13/07/2011,01:02:06,   0.0,  0.0,  346,+11.5,  87.1,    0.2,  +16.0,  +17.3,  +14.1,+1100.00,23
13/07/2011,01:02:24,   0.0,  0.0,  346,+11.6,  87.1,    0.2,  +16.0,  +17.3,  +14.1,+1100.00,24
13/07/2011,01:02:50,   0.0,  0.0,  347,+11.6,  87.2,    0.1,  +16.0,  +17.2,  +14.1,+1100.00,23
13/07/2011,01:03:08,   0.0,  0.0,  346,+11.6,  87.2,    0.1,  +16.0,  +17.2,  +14.1,+1100.00,26
13/07/2011,01:03:26,   0.0,  0.0,  346,+11.6,  87.3,    0.2,  +16.0,  +17.2,  +14.1,+1100.00,28
13/07/2011,01:03:51,   0.0,  0.0,  347,+11.6,  87.3,    0.1,  +16.0,  +17.3,  +14.1,+1100.00,27
13/07/2011,01:04:09,   0.0,  0.0,  346,+11.6,  87.4,    0.1,  +16.0,  +17.3,  +14.1,+1100.00,2B
13/07/2011,01:04:27,   0.0,  0.0,  346,+11.6,  87.4,    0.3,  +16.0,  +17.3,  +14.1,+1100.00,2D
13/07/2011,01:04:45,   0.0,  0.0,  346,+11.6,  87.4,    0.1,  +16.0,  +17.3,  +14.1,+1100.00,2B
13/07/2011,01:05:11,   0.0,  0.0,  346,+11.6,  87.5,    0.2,  +16.0,  +17.2,  +14.1,+1100.00,26
13/07/2011,01:05:29,   0.0,  0.0,  346,+11.6,  87.5,    0.3,  +15.9,  +17.3,  +14.1,+1100.00,39
13/07/2011,01:05:47,   0.0,  0.0,  346,+11.6,  87.4,    0.1,  +15.9,  +17.3,  +14.1,+1100.00,36
13/07/2011,01:06:04,   0.0,  0.0,  346,+11.6,  87.4,    0.1,  +15.9,  +17.3,  +14.1,+1100.00,30
13/07/2011,01:06:30,   0.0,  0.0,  347,+11.6,  87.4,    0.2,  +16.0,  +17.2,  +14.2,+1100.00,29
13/07/2011,01:06:48,   0.0,  0.0,  346,+11.6,  87.3,    0.2,  +15.9,  +17.4,  +14.1,+1100.00,39
13/07/2011,01:07:06,   0.0,  0.0,  346,+11.6,  87.3,    0.2,  +16.1,  +17.2,  +14.2,+1100.00,2C
13/07/2011,01:07:24,   0.0,  0.0,  346,+11.6,  87.3,    0.1,  +16.1,  +17.2,  +14.2,+1100.00,2B
13/07/2011,01:07:50,   0.0,  0.0,  346,+11.6,  87.3,    0.3,  +15.9,  +17.3,  +14.1,+1100.00,33
13/07/2011,01:08:08,   0.0,  0.0,  346,+11.6,  87.3,    0.3,  +16.0,  +17.3,  +14.1,+1100.00,2F
13/07/2011,01:08:26,   0.0,  0.0,  346,+11.6,  87.2,    0.1,  +15.9,  +17.3,  +14.1,+1100.00,34
13/07/2011,01:08:44,   0.0,  0.0,  346,+11.6,  87.2,    0.1,  +15.9,  +17.3,  +14.1,+1100.00,34
13/07/2011,01:09:10,   0.0,  0.0,  346,+11.6,  87.2,    0.3,  +15.9,  +17.3,  +14.1,+1100.00,30
13/07/2011,01:09:28,   0.0,  0.0,  346,+11.6,  87.2,    0.3,  +16.0,  +17.3,  +14.1,+1100.00,31
13/07/2011,01:09:46,   0.0,  0.0,  346,+11.6,  87.1,    0.4,  +15.9,  +17.3,  +14.1,+1100.00,39
13/07/2011,01:10:04,   0.0,  0.0,  346,+11.6,  87.1,    0.1,  +15.9,  +17.4,  +14.1,+1100.00,29
13/07/2011,01:10:30,   0.0,  0.0,  347,+11.6,  87.0,    0.2,  +16.0,  +17.3,  +14.1,+1100.00,20
13/07/2011,01:10:48,   0.0,  0.0,  346,+11.6,  87.0,    0.2,  +16.0,  +17.2,  +14.1,+1100.00,27
13/07/2011,01:11:06,   0.0,  0.0,  346,+11.6,  87.0,    0.1,  +15.9,  +17.3,  +14.1,+1100.00,2A
13/07/2011,01:11:31,   0.0,  0.0,  347,+11.6,  86.9,    0.1,  +16.0,  +17.2,  +14.2,+1100.00,29
13/07/2011,01:11:49,   0.0,  0.0,  346,+11.6,  86.9,    0.4,  +16.0,  +17.2,  +14.2,+1100.00,34
13/07/2011,01:12:07,   0.0,  0.0,  346,+11.6,  86.9,    0.4,  +15.9,  +17.3,  +14.2,+1100.00,38
13/07/2011,01:12:25,   0.0,  0.0,  346,+11.6,  86.9,    0.1,  +16.0,  +17.2,  +14.2,+1100.00,2C
13/07/2011,01:12:51,   0.0,  0.0,  347,+11.6,  86.9,    0.2,  +15.9,  +17.3,  +14.1,+1100.00,35
13/07/2011,01:13:09,   0.0,  0.0,  346,+11.6,  86.9,    0.0,  +16.0,  +17.2,  +14.2,+1100.00,2E
13/07/2011,01:13:27,   0.0,  0.0,  346,+11.7,  86.9,    0.0,  +15.9,  +17.2,  +14.2,+1100.00,37
13/07/2011,01:13:45,   0.0,  0.0,  346,+11.7,  86.8,    0.1,  +16.0,  +17.3,  +14.2,+1100.00,30
13/07/2011,01:14:10,   0.0,  0.0,  347,+11.7,  86.8,    0.1,  +15.9,  +17.3,  +14.2,+1100.00,32
13/07/2011,01:14:28,   0.0,  0.0,  346,+11.7,  86.8,    0.4,  +16.0,  +17.3,  +14.2,+1100.00,35
13/07/2011,01:14:46,   0.0,  0.0,  346,+11.7,  86.8,    0.3,  +16.0,  +17.2,  +14.3,+1100.00,34
13/07/2011,01:15:04,   0.0,  0.0,  346,+11.7,  86.7,    0.1,  +15.9,  +17.3,  +14.2,+1100.00,34
13/07/2011,01:15:30,   0.0,  0.0,  347,+11.6,  86.7,    0.1,  +16.1,  +17.2,  +14.2,+1100.00,2B
13/07/2011,01:15:48,   0.0,  0.0,  346,+11.7,  86.8,    0.2,  +15.9,  +17.3,  +14.2,+1100.00,3E
13/07/2011,01:16:06,   0.0,  0.0,  346,+11.7,  86.7,    0.3,  +16.0,  +17.2,  +14.2,+1100.00,30
13/07/2011,01:16:31,   0.0,  0.0,  347,+11.6,  86.7,    0.2,  +16.0,  +17.3,  +14.2,+1100.00,2E
13/07/2011,01:16:49,   0.0,  0.0,  346,+11.7,  86.7,    0.2,  +16.0,  +17.3,  +14.2,+1100.00,37
13/07/2011,01:17:07,   0.0,  0.0,  346,+11.7,  86.7,    0.2,  +16.1,  +17.1,  +14.3,+1100.00,32
13/07/2011,01:17:25,   0.0,  0.0,  346,+11.7,  86.7,    0.1,  +16.0,  +17.2,  +14.3,+1100.00,31
13/07/2011,01:17:51,   0.0,  0.0,  347,+11.6,  86.6,    0.1,  +15.9,  +17.3,  +14.2,+1100.00,37
13/07/2011,01:18:09,   0.0,  0.0,  346,+11.7,  86.7,    0.0,  +16.0,  +17.3,  +14.3,+1100.00,34
13/07/2011,01:18:27,   0.0,  0.0,  346,+11.6,  86.7,    0.1,  +16.0,  +17.2,  +14.3,+1100.00,33
13/07/2011,01:18:45,   0.0,  0.0,  346,+11.7,  86.7,    0.1,  +16.0,  +17.3,  +14.3,+1100.00,35
13/07/2011,01:19:10,   0.0,  0.0,  347,+11.6,  86.6,    0.1,  +16.0,  +17.2,  +14.3,+1100.00,2C
13/07/2011,01:19:28,   0.0,  0.0,  346,+11.7,  86.6,    0.0,  +16.0,  +17.2,  +14.3,+1100.00,34
13/07/2011,01:19:46,   0.0,  0.0,  346,+11.7,  86.7,    0.3,  +15.9,  +17.3,  +14.3,+1100.00,41
13/07/2011,01:20:04,   0.0,  0.0,  346,+11.7,  86.6,    0.4,  +16.0,  +17.2,  +14.3,+1100.00,2A
13/07/2011,01:20:30,   0.0,  0.0,  347,+11.7,  86.6,    0.1,  +15.9,  +17.3,  +14.2,+1100.00,2F
13/07/2011,01:20:48,   0.0,  0.0,  346,+11.7,  86.6,    0.1,  +16.0,  +17.2,  +14.3,+1100.00,2F
13/07/2011,01:21:06,   0.0,  0.0,  346,+11.7,  86.6,    0.1,  +16.1,  +17.2,  +14.3,+1100.00,2B
13/07/2011,01:21:31,   0.0,  0.0,  347,+11.7,  86.6,    0.2,  +16.0,  +17.2,  +14.3,+1100.00,2A
13/07/2011,01:21:49,   0.0,  0.0,  346,+11.6,  86.6,    0.2,  +15.9,  +17.3,  +14.3,+1100.00,3A
13/07/2011,01:22:07,   0.0,  0.0,  346,+11.7,  86.6,    0.2,  +16.1,  +17.2,  +14.3,+1100.00,2E
13/07/2011,01:22:25,   0.0,  0.0,  346,+11.7,  86.6,    0.4,  +16.0,  +17.3,  +14.3,+1100.00,30